Hourly Data Report for November 01, 2005

TORONTO CITY
ONTARIO

43°40'00.000" N
79°24'00.000" W
112.50 m
6158355
71508
XTO

Download Data

Hourly Data (November 2005)
Hourly Data Report for November 1, 2005
TIME
LST
Temp Definition
°C
Dew Point Definition
°C
Rel Hum Definition
%
Precip. Amount Definition
mm

Wind Dir Definition
10's deg

Wind Spd Definition
km/h
Visibility Definition
km
Stn Press Definition
kPa
Hmdx Definition


Wind Chill Definition


Weather Definition


00:00 11.9 11.0 94   LegendMM LegendMM   100.08     LegendNANA
01:00 11.5 10.9 96   LegendMM LegendMM   99.98     LegendNANA
02:00 11.3 11.0 98   LegendMM LegendMM   99.85     LegendNANA
03:00 11.1 10.8 98   LegendMM LegendMM   99.73     LegendNANA
04:00 10.7 10.5 99   LegendMM LegendMM   99.60     LegendNANA
05:00 11.7 10.7 94   LegendMM LegendMM   99.51     LegendNANA
06:00 11.8 10.0 89   LegendMM LegendMM   99.46     LegendNANA
07:00 12.0 9.4 84   LegendMM LegendMM   99.47     LegendNANA
08:00 12.3 9.2 81   LegendMM LegendMM   99.51     LegendNANA
09:00 11.0 8.8 86   LegendMM LegendMM   99.56     LegendNANA
10:00 11.1 8.6 85   LegendMM LegendMM   99.59     LegendNANA
11:00 11.3 8.5 83   LegendMM LegendMM   99.66     LegendNANA
12:00 11.5 8.2 80   LegendMM LegendMM   99.65     LegendNANA
13:00 12.3 8.3 77   LegendMM LegendMM   99.63     LegendNANA
14:00 12.6 7.6 72   LegendMM LegendMM   99.61     LegendNANA
15:00 12.8 6.3 65   LegendMM LegendMM   99.63     LegendNANA
16:00 12.6 4.6 58   LegendMM LegendMM   99.64     LegendNANA
17:00 11.6 4.6 62   LegendMM LegendMM   99.66     LegendNANA
18:00 10.8 5.0 67   LegendMM LegendMM   99.76     LegendNANA
19:00 9.6 5.3 75   LegendMM LegendMM   99.83     LegendNANA
20:00 8.8 4.9 76   LegendMM LegendMM   99.85     LegendNANA
21:00 8.5 4.6 76   LegendMM LegendMM   99.91     LegendNANA
22:00 8.0 4.1 76   LegendMM LegendMM   99.95     LegendNANA
23:00 7.2 3.6 78   LegendMM LegendMM   99.96     LegendNANA

Notes on Data Quality.

Legend

  • E = Estimated
  • M = Missing
  • NA = Not Available*
  • [empty] = Indicates an unobserved value
Date modified: